| time (UTC) | temp C | wind direction | speed KPH | gust KPH | rain 1hr cm | rain 24hr cm | rain mn cm | humidity % | barometer mb |
| 20260506140032 | 14 | 293 | 0.0 | 1.6 | 0.18 | 0.53 | 0.46 | 90 | 1003.4 |
| 20260506134604 | 13 | 293 | 0.0 | 3.2 | 0.23 | 0.51 | 0.43 | 90 | 1003.5 |
| 20260506133030 | 13 | 293 | 0.0 | 8.0 | 0.23 | 0.46 | 0.38 | 89 | 1003.7 |
| 20260506131529 | 13 | 308 | 0.0 | 3.2 | 0.23 | 0.41 | 0.33 | 89 | 1004.1 |
| 20260506130026 | 13 | 308 | 1.6 | 4.8 | 0.20 | 0.36 | 0.28 | 89 | 1004.3 |
| 20260506124525 | 12 | 307 | 1.6 | 4.8 | 0.13 | 0.28 | 0.20 | 88 | 1004.3 |
| 20260506123027 | 12 | 308 | 0.0 | 4.8 | 0.10 | 0.23 | 0.15 | 88 | 1004.0 |
| 20260506121523 | 12 | 307 | 0.0 | 3.2 | 0.05 | 0.18 | 0.10 | 88 | 1003.9 |
| 20260506120022 | 12 | 308 | 0.0 | 1.6 | 0.03 | 0.15 | 0.08 | 88 | 1003.8 |
| 20260506114532 | 12 | 307 | 0.0 | 4.8 | 0.03 | 0.20 | 0.08 | 87 | 1004.2 |
| 20260506113021 | 12 | 307 | 0.0 | 3.2 | 0.00 | 0.18 | 0.05 | 87 | 1004.3 |
| 20260506111520 | 12 | 308 | 0.0 | 3.2 | 0.03 | 0.18 | 0.05 | 87 | 1004.5 |
| 20260506110019 | 12 | 308 | 0.0 | 3.2 | 0.03 | 0.18 | 0.05 | 86 | 1004.3 |
| 20260506104519 | 12 | 307 | 0.0 | 3.2 | 0.03 | 0.18 | 0.05 | 86 | 1004.3 |
| 20260506103025 | 12 | 308 | 0.0 | 4.8 | 0.03 | 0.18 | 0.05 | 86 | 1004.3 |
| 20260506101516 | 12 | 308 | 0.0 | 1.6 | 0.00 | 0.15 | 0.03 | 85 | 1003.9 |
| 20260506100028 | 12 | 307 | 0.0 | 3.2 | 0.00 | 0.15 | 0.03 | 84 | 1003.8 |
| 20260506094517 | 12 | 308 | 0.0 | 3.2 | 0.03 | 0.15 | 0.03 | 84 | 1003.9 |
| 20260506093013 | 12 | 308 | 0.0 | 1.6 | 0.03 | 0.15 | 0.03 | 83 | 1003.9 |
| 20260506091511 | 12 | 308 | 0.0 | 1.6 | 0.03 | 0.15 | 0.03 | 83 | 1004.0 |
| 20260506090011 | 12 | 308 | 0.0 | 3.2 | 0.03 | 0.15 | 0.03 | 83 | 1004.2 |
| 20260506084508 | 12 | 308 | 0.0 | 3.2 | 0.00 | 0.13 | 0.00 | 82 | 1004.4 |
| 20260506083008 | 12 | 308 | 0.0 | 8.0 | 0.00 | 0.13 | 0.00 | 81 | 1004.6 |
| 20260506081509 | 12 | 309 | 3.2 | 8.0 | 0.00 | 0.13 | 0.00 | 80 | 1004.6 |
| 20260506073100 | 13 | 17 | 0.0 | 6.4 | 0.00 | 0.13 | 0.00 | 79 | 1004.4 |
| 20260506071559 | 13 | 33 | 3.2 | 6.4 | 0.00 | 0.13 | 0.00 | 79 | 1004.4 |
| 20260506070124 | 13 | 13 | 3.2 | 8.0 | 0.00 | 0.13 | 0.00 | 79 | 1004.3 |
| 20260506061550 | 13 | 5 | 3.2 | 4.8 | 0.00 | 0.13 | 0.00 | 79 | 1005.0 |
| 20260506044540 | 14 | 5 | 0.0 | 0.0 | 0.00 | 0.13 | 0.00 | 77 | 1006.1 |
| 20260506043038 | 14 | 5 | 0.0 | 1.6 | 0.00 | 0.13 | 0.00 | 76 | 1006.1 |
| 20260506041539 | 14 | 5 | 0.0 | 3.2 | 0.00 | 0.13 | 0.00 | 76 | 1006.1 |
| 20260506040034 | 14 | 5 | 0.0 | 1.6 | 0.00 | 0.13 | 0.00 | 75 | 1006.3 |
| 20260506034532 | 14 | 5 | 0.0 | 6.4 | 0.00 | 0.13 | 0.13 | 74 | 1006.4 |
| 20260506033032 | 15 | 9 | 3.2 | 6.4 | 0.00 | 0.13 | 0.13 | 74 | 1006.8 |
| 20260506031537 | 15 | 9 | 0.0 | 8.0 | 0.00 | 0.13 | 0.13 | 74 | 1006.6 |
| 20260506030029 | 15 | 20 | 3.2 | 9.7 | 0.00 | 0.13 | 0.13 | 74 | 1006.5 |
| 20260506024537 | 15 | 338 | 4.8 | 19.3 | 0.00 | 0.13 | 0.13 | 75 | 1006.5 |
| 20260506023022 | 16 | 10 | 16.1 | 27.4 | 0.00 | 0.13 | 0.13 | 77 | 1006.5 |
| 20260506021520 | 17 | 351 | 1.6 | 6.4 | 0.00 | 0.13 | 0.13 | 80 | 1006.1 |
| 20260506020017 | 17 | 351 | 1.6 | 9.7 | 0.00 | 0.13 | 0.13 | 81 | 1006.0 |
| 20260506014516 | 17 | 360 | 4.8 | 12.9 | 0.00 | 0.13 | 0.13 | 82 | 1005.8 |
| 20260506013014 | 17 | 11 | 3.2 | 9.7 | 0.00 | 0.13 | 0.13 | 83 | 1005.7 |
| 20260506011525 | 17 | 5 | 3.2 | 20.9 | 0.00 | 0.13 | 0.13 | 84 | 1005.2 |
| 20260506010011 | 17 | 335 | 4.8 | 8.0 | 0.00 | 0.13 | 0.13 | 85 | 1005.2 |
| 20260506004509 | 17 | 172 | 9.7 | 14.5 | 0.00 | 0.13 | 0.13 | 84 | 1004.4 |
| 20260506003012 | 17 | 202 | 4.8 | 9.7 | 0.00 | 0.13 | 0.13 | 83 | 1004.3 |
| 20260506001507 | 17 | 202 | 3.2 | 6.4 | 0.00 | 0.13 | 0.13 | 82 | 1004.2 |
| 20260506000006 | 18 | 202 | 3.2 | 6.4 | 0.00 | 0.13 | 0.13 | 81 | 1004.0 |
| 20260505234508 | 18 | 202 | 1.6 | 4.8 | 0.00 | 0.13 | 0.13 | 80 | 1004.1 |
| 20260505233004 | 18 | 202 | 0.0 | 3.2 | 0.00 | 0.13 | 0.13 | 78 | 1004.1 |
| 20260505231506 | 18 | 202 | 1.6 | 4.8 | 0.00 | 0.13 | 0.13 | 78 | 1004.0 |
| 20260505230007 | 19 | 202 | 1.6 | 6.4 | 0.00 | 0.13 | 0.13 | 76 | 1004.0 |
| 20260505224502 | 19 | 202 | 0.0 | 3.2 | 0.00 | 0.13 | 0.13 | 76 | 1003.9 |
| 20260505223001 | 19 | 202 | 3.2 | 4.8 | 0.00 | 0.13 | 0.13 | 75 | 1003.9 |
| 20260505221502 | 19 | 202 | 1.6 | 11.3 | 0.00 | 0.13 | 0.13 | 76 | 1004.0 |
| 20260505220100 | 19 | 220 | 6.4 | 12.9 | 0.00 | 0.13 | 0.13 | 75 | 1003.8 |
| 20260505214600 | 19 | 180 | 3.2 | 11.3 | 0.00 | 0.13 | 0.13 | 75 | 1003.4 |
| 20260505213100 | 19 | 161 | 4.8 | 8.0 | 0.00 | 0.13 | 0.13 | 74 | 1003.1 |
| 20260505211559 | 19 | 171 | 4.8 | 9.7 | 0.00 | 0.13 | 0.13 | 74 | 1003.2 |
| 20260505210058 | 18 | 233 | 3.2 | 11.3 | 0.00 | 0.13 | 0.13 | 75 | 1003.1 |
| 20260505204602 | 18 | 217 | 3.2 | 8.0 | 0.03 | 0.13 | 0.13 | 75 | 1003.3 |
| 20260505203103 | 18 | 217 | 1.6 | 8.0 | 0.05 | 0.13 | 0.13 | 75 | 1003.6 |
| 20260505201556 | 18 | 216 | 3.2 | 8.0 | 0.05 | 0.13 | 0.13 | 74 | 1003.6 |
| 20260505200055 | 18 | 200 | 4.8 | 14.5 | 0.05 | 0.13 | 0.13 | 72 | 1003.5 |
| 20260505194611 | 20 | 280 | 19.3 | 75.6 | 0.03 | 0.10 | 0.10 | 64 | 1004.2 |
| 20260505193053 | 25 | 232 | 22.5 | 46.7 | 0.00 | 0.08 | 0.08 | 34 | 1001.8 |
| 20260505191605 | 26 | 209 | 27.4 | 45.1 | 0.00 | 0.08 | 0.08 | 32 | 1001.3 |
| 20260505190051 | 25 | 245 | 9.7 | 33.8 | 0.00 | 0.08 | 0.08 | 36 | 1001.4 |
| 20260505184545 | 25 | 210 | 16.1 | 33.8 | 0.03 | 0.08 | 0.08 | 39 | 1001.8 |
| 20260505183041 | 25 | 198 | 8.0 | 22.5 | 0.03 | 0.08 | 0.08 | 45 | 1002.0 |
| 20260505181539 | 23 | 219 | 11.3 | 17.7 | 0.03 | 0.08 | 0.08 | 53 | 1002.4 |
| 20260505180045 | 23 | 227 | 11.3 | 33.8 | 0.03 | 0.08 | 0.08 | 51 | 1003.0 |
| 20260505174535 | 24 | 248 | 20.9 | 37.0 | 0.00 | 0.05 | 0.05 | 43 | 1003.0 |
| 20260505173034 | 24 | 247 | 20.9 | 30.6 | 0.00 | 0.05 | 0.05 | 43 | 1003.2 |
| 20260505171531 | 24 | 246 | 16.1 | 27.4 | 0.00 | 0.05 | 0.05 | 43 | 1003.3 |
| 20260505170032 | 24 | 238 | 14.5 | 37.0 | 0.00 | 0.05 | 0.05 | 43 | 1002.8 |
| 20260505164529 | 24 | 234 | 14.5 | 38.6 | 0.00 | 0.05 | 0.05 | 43 | 1002.7 |
| 20260505163028 | 24 | 206 | 14.5 | 30.6 | 0.00 | 0.05 | 0.05 | 43 | 1002.9 |
| 20260505161528 | 24 | 183 | 20.9 | 33.8 | 0.00 | 0.05 | 0.05 | 41 | 1003.3 |
| 20260505153021 | 24 | 213 | 17.7 | 40.2 | 0.00 | 0.05 | 0.05 | 42 | 1003.4 |
| 20260505151520 | 24 | 207 | 11.3 | 38.6 | 0.00 | 0.05 | 0.05 | 44 | 1003.5 |